Location: Dumpton Point
(51.3500°N, 1.4433°E)
Time: 08:48:03
(UTC+00:00)

Transit 2A Rocket - Visible Passes

Search period start: 19 April 2021 00:00
Search period end: 29 April 2021 00:00
Orbit: 594 x 908 km, 66.7° (Epoch: 18 April)

Date Brightness Start Highest point End Pass type
(mag) Time Alt. Az. Time Alt. Az. Time Alt. Az.
19 Apr 6.0 00:15:39 10° NW 00:18:03 30° WNW 00:18:03 30° WNW visible
19 Apr 7.3 20:08:49 10° NNW 20:10:13 11° N 20:11:36 10° NNE visible
19 Apr 6.5 21:50:50 10° NNW 21:54:21 23° NNE 21:56:30 17° ENE visible
19 Apr 5.1 23:32:57 10° NW 23:36:24 54° NW 23:36:24 54° NW visible
20 Apr 6.8 21:08:24 10° NNW 21:11:23 18° NNE 21:14:27 10° ENE visible
20 Apr 4.9 22:50:22 10° NNW 22:54:44 62° NE 22:54:44 62° NE visible
21 Apr 6.8 00:33:26 10° WNW 00:34:37 15° WNW 00:34:37 15° WNW visible
21 Apr 7.0 20:25:57 10° NNW 20:28:20 14° NNE 20:30:45 10° NE visible
21 Apr 5.5 22:07:50 10° NNW 22:12:01 40° NE 22:13:07 34° ENE visible
21 Apr 6.1 23:50:25 10° NW 23:53:00 28° WNW 23:53:00 28° WNW visible
22 Apr 7.1 19:43:27 10° NNW 19:45:13 12° NNE 19:47:00 10° NE visible
22 Apr 6.1 21:25:22 10° NNW 21:29:12 28° NE 21:31:30 19° E visible
22 Apr 5.0 23:07:37 10° NW 23:11:23 55° W 23:11:23 55° W visible
23 Apr 6.5 20:42:55 10° NNW 20:46:17 21° NNE 20:49:45 10° E visible
23 Apr 4.5 22:24:58 10° NW 22:29:26 83° NE 22:29:49 74° ESE visible
24 Apr 6.9 00:08:35 10° WNW 00:09:42 14° W 00:09:42 14° W visible
24 Apr 6.8 20:00:29 10° NNW 20:03:17 16° NNE 20:06:09 10° ENE visible
24 Apr 5.1 21:42:24 10° NNW 21:46:46 53° NE 21:48:16 36° E visible
24 Apr 6.2 23:25:17 10° WNW 23:28:09 25° W 23:28:09 25° W visible
25 Apr 5.7 20:59:54 10° NNW 21:04:00 35° NE 21:06:44 19° E visible
25 Apr 5.2 22:42:21 10° NW 22:46:37 44° WSW 22:46:37 44° WSW visible
26 Apr 6.2 20:17:27 10° NNW 20:21:08 25° NE 20:25:00 10° E visible
26 Apr 4.6 21:59:37 10° NW 22:04:05 73° SW 22:05:07 52° SSE visible
26 Apr 7.1 23:44:15 10° W 23:45:01 11° W 23:45:01 11° W visible
27 Apr 4.7 21:17:00 10° NW 21:21:28 71° NE 21:23:39 31° SE visible
27 Apr 6.4 23:00:17 10° WNW 23:03:32 20° WSW 23:03:32 20° WSW visible
28 Apr 5.3 20:34:27 10° NNW 20:38:45 45° NE 20:42:12 16° ESE visible
28 Apr 5.8 22:17:09 10° NW 22:21:12 32° WSW 22:22:06 30° SW visible
